Voltar ao catálogo

COSMOS 249 DEB

AtivoLEO
NORAD 15535·DEBRIS·🇷🇺 Russia

Lançado Oct 20, 1968 de Baikonur Cosmodrome

Loading…

Próximas Passagens (próximas 24 horas)

TLE

AtualizadoSource: Space-Track

Época: Sep 13, 2026, 08:36 UTC

1 15535U 68091CY  26256.35902216  .00006665  00000-0  84212-3 0  9995
2 15535  62.3998  22.1751 0305460 224.6818 132.9276 14.54967163969656

Acompanhe COSMOS 249 DEB em tempo real com AllMySat

Download on the App Store